Time,TemperatureF,DewpointF,PressureIn,WindDirection,WindDirectionDegrees,WindSpeedMPH,WindSpeedGustMPH,Humidity,HourlyPrecipIn,Conditions,Clouds,dailyrainin,SoftwareType,DateUTC
2013-07-18 00:01:00,73.2,72.0,30.05,ENE,57,0.0,0.0,96,0.03,RA,OVC,0.00,WeatherDisplay:10.37,2013-07-18 04:01:00,
2013-07-18 00:06:00,73.3,72.1,30.05,ENE,57,0.0,0.0,96,0.02,RA,OVC,0.00,WeatherDisplay:10.37,2013-07-18 04:06:00,
2013-07-18 00:11:00,73.3,72.1,30.05,ENE,57,0.0,0.0,96,0.02,SCT,OVC,0.00,WeatherDisplay:10.37,2013-07-18 04:11:00,
2013-07-18 00:16:00,73.3,72.1,30.05,ENE,57,0.0,0.0,96,0.02,SCT,OVC,0.00,WeatherDisplay:10.37,2013-07-18 04:16:00,
2013-07-18 00:21:00,73.5,72.3,30.05,ENE,59,3.5,3.5,96,0.03,RA,OVC,0.01,WeatherDisplay:10.37,2013-07-18 04:21:00,
2013-07-18 00:26:00,73.7,72.5,30.05,ENE,59,2.3,2.3,96,0.03,RA,OVC,0.01,WeatherDisplay:10.37,2013-07-18 04:26:00,
2013-07-18 00:31:00,73.9,72.7,30.05,ESE,107,2.0,2.3,96,0.02,SCT,OVC,0.01,WeatherDisplay:10.37,2013-07-18 04:31:00,
2013-07-18 00:36:00,74.0,72.8,30.05,ESE,107,0.0,0.0,96,0.02,SCT,OVC,0.01,WeatherDisplay:10.37,2013-07-18 04:36:00,
2013-07-18 00:41:00,74.0,72.8,30.05,ESE,108,0.0,0.0,96,0.02,SCT,OVC,0.01,WeatherDisplay:10.37,2013-07-18 04:41:00,
2013-07-18 00:46:00,74.0,72.8,30.05,ESE,108,0.0,0.0,96,0.03,RA,OVC,0.02,WeatherDisplay:10.37,2013-07-18 04:46:00,
2013-07-18 00:51:00,74.2,73.0,30.05,ESE,108,0.0,0.0,96,0.03,RA,OVC,0.02,WeatherDisplay:10.37,2013-07-18 04:51:00,
2013-07-18 00:56:00,74.2,73.0,30.05,ESE,107,0.0,0.0,96,0.02,SCT,OVC,0.02,WeatherDisplay:10.37,2013-07-18 04:56:00,
2013-07-18 01:01:00,74.2,73.0,30.04,ESE,107,0.0,0.0,96,0.02,SCT,OVC,0.02,WeatherDisplay:10.37,2013-07-18 05:01:00,
2013-07-18 01:06:00,74.0,72.8,30.04,ESE,107,0.0,0.0,96,0.02,SCT,OVC,0.02,WeatherDisplay:10.37,2013-07-18 05:06:00,
2013-07-18 01:11:00,74.0,72.8,30.04,East,99,0.0,0.0,96,0.02,SCT,OVC,0.02,WeatherDisplay:10.37,2013-07-18 05:11:00,
2013-07-18 01:16:00,74.0,72.8,30.05,East,99,0.0,0.0,96,0.02,SCT,OVC,0.02,WeatherDisplay:10.37,2013-07-18 05:16:00,
2013-07-18 01:21:00,74.0,72.8,30.05,East,99,0.0,0.0,96,0.02,RA,OVC,0.03,WeatherDisplay:10.37,2013-07-18 05:21:00,
2013-07-18 01:26:00,73.9,72.7,30.05,East,99,0.0,0.0,96,0.02,RA,OVC,0.03,WeatherDisplay:10.37,2013-07-18 05:26:00,
2013-07-18 01:31:00,73.9,72.7,30.05,East,99,0.0,0.0,96,0.02,SCT,OVC,0.03,WeatherDisplay:10.37,2013-07-18 05:31:00,
2013-07-18 01:36:00,73.7,72.5,30.05,East,99,0.0,0.0,96,0.02,SCT,OVC,0.03,WeatherDisplay:10.37,2013-07-18 05:36:00,
2013-07-18 01:41:00,73.7,72.5,30.05,ENE,69,12.0,12.0,96,0.02,SCT,OVC,0.03,WeatherDisplay:10.37,2013-07-18 05:41:00,
2013-07-18 01:46:00,73.5,72.3,30.05,NE,54,8.1,8.1,96,0.01,SCT,OVC,0.04,WeatherDisplay:10.37,2013-07-18 05:46:00,
2013-07-18 01:51:00,73.5,72.3,30.05,NNE,32,0.0,0.0,96,0.02,RA,OVC,0.04,WeatherDisplay:10.37,2013-07-18 05:51:00,
2013-07-18 01:56:00,73.5,72.3,30.05,NE,42,0.0,0.0,96,0.02,RA,OVC,0.04,WeatherDisplay:10.37,2013-07-18 05:56:00,
2013-07-18 02:01:00,73.5,72.6,30.04,NE,55,11.5,11.5,97,0.02,SCT,OVC,0.04,WeatherDisplay:10.37,2013-07-18 06:01:00,
2013-07-18 02:06:00,73.7,72.8,30.04,ENE,64,0.0,0.0,97,0.02,SCT,OVC,0.04,WeatherDisplay:10.37,2013-07-18 06:06:00,
2013-07-18 02:11:00,73.9,73.0,30.04,ENE,77,8.1,0.0,97,0.02,SCT,OVC,0.04,WeatherDisplay:10.37,2013-07-18 06:11:00,
2013-07-18 02:16:00,73.9,73.0,30.04,East,79,0.0,0.0,97,0.02,SCT,OVC,0.04,WeatherDisplay:10.37,2013-07-18 06:16:00,
2013-07-18 02:21:00,73.9,73.0,30.04,East,79,0.0,0.0,97,0.02,RA,OVC,0.05,WeatherDisplay:10.37,2013-07-18 06:21:00,
2013-07-18 02:26:00,73.7,72.5,30.04,East,79,0.0,0.0,96,0.02,RA,OVC,0.05,WeatherDisplay:10.37,2013-07-18 06:26:00,
2013-07-18 02:31:00,73.7,72.8,30.04,East,79,0.0,0.0,97,0.02,SCT,OVC,0.05,WeatherDisplay:10.37,2013-07-18 06:31:00,
2013-07-18 02:36:00,73.5,72.6,30.04,East,79,0.0,0.0,97,0.02,SCT,OVC,0.05,WeatherDisplay:10.37,2013-07-18 06:36:00,
2013-07-18 02:41:00,73.5,72.6,30.04,East,79,0.0,0.0,97,0.02,SCT,OVC,0.05,WeatherDisplay:10.37,2013-07-18 06:41:00,
2013-07-18 02:46:00,73.3,72.1,30.03,East,79,0.0,0.0,96,0.02,SCT,OVC,0.05,WeatherDisplay:10.37,2013-07-18 06:46:00,
2013-07-18 02:51:00,73.3,72.4,30.03,ENE,78,0.0,0.0,97,0.02,RA,OVC,0.06,WeatherDisplay:10.37,2013-07-18 06:51:00,
2013-07-18 02:56:00,73.5,72.6,30.03,ENE,78,0.0,0.0,97,0.02,RA,OVC,0.06,WeatherDisplay:10.37,2013-07-18 06:56:00,
2013-07-18 03:02:00,73.3,72.4,30.02,ENE,78,0.0,0.0,97,0.02,SCT,OVC,0.06,WeatherDisplay:10.37,2013-07-18 07:02:00,
2013-07-18 03:07:00,73.3,72.4,30.02,ENE,78,0.0,0.0,97,0.02,SCT,OVC,0.06,WeatherDisplay:10.37,2013-07-18 07:07:00,
2013-07-18 03:12:00,73.3,72.4,30.02,NE,46,0.0,0.0,97,0.02,SCT,OVC,0.06,WeatherDisplay:10.37,2013-07-18 07:12:00,
2013-07-18 03:17:00,73.3,72.4,30.03,ENE,72,9.2,9.2,97,0.02,SCT,OVC,0.06,WeatherDisplay:10.37,2013-07-18 07:17:00,
2013-07-18 03:22:00,73.3,72.4,30.03,ENE,66,0.0,0.0,97,0.01,SCT,OVC,0.06,WeatherDisplay:10.37,2013-07-18 07:22:00,
2013-07-18 03:27:00,73.3,72.4,30.03,ENE,66,0.0,0.0,97,0.02,RA,OVC,0.07,WeatherDisplay:10.37,2013-07-18 07:27:00,
2013-07-18 03:32:00,73.3,72.4,30.03,ENE,65,0.0,0.0,97,0.02,RA,OVC,0.07,WeatherDisplay:10.37,2013-07-18 07:32:00,
2013-07-18 03:37:00,73.3,72.4,30.03,ENE,65,0.0,0.0,97,0.02,SCT,OVC,0.07,WeatherDisplay:10.37,2013-07-18 07:37:00,
2013-07-18 03:42:00,73.5,72.6,30.03,ENE,65,0.0,0.0,97,0.02,SCT,OVC,0.07,WeatherDisplay:10.37,2013-07-18 07:42:00,
2013-07-18 03:47:00,73.5,72.6,30.03,ENE,65,0.0,0.0,97,0.02,SCT,OVC,0.07,WeatherDisplay:10.37,2013-07-18 07:47:00,
2013-07-18 03:52:00,73.5,72.6,30.03,ENE,63,0.0,0.0,97,0.02,RA,OVC,0.08,WeatherDisplay:10.37,2013-07-18 07:52:00,
2013-07-18 03:57:00,73.5,72.6,30.03,ENE,64,0.0,0.0,97,0.02,RA,OVC,0.08,WeatherDisplay:10.37,2013-07-18 07:57:00,
2013-07-18 04:02:00,73.5,72.6,30.02,ENE,64,0.0,0.0,97,0.02,SCT,OVC,0.08,WeatherDisplay:10.37,2013-07-18 08:02:00,
2013-07-18 04:07:00,73.5,72.6,30.02,NE,53,0.0,0.0,97,0.02,SCT,OVC,0.08,WeatherDisplay:10.37,2013-07-18 08:07:00,
2013-07-18 04:12:00,73.5,72.6,30.02,NE,49,0.0,0.0,97,0.02,SCT,OVC,0.08,WeatherDisplay:10.37,2013-07-18 08:12:00,
2013-07-18 04:17:00,73.5,72.6,30.02,NE,34,0.0,0.0,97,0.02,SCT,OVC,0.08,WeatherDisplay:10.37,2013-07-18 08:17:00,
2013-07-18 04:22:00,73.5,72.6,30.02,NE,34,0.0,0.0,97,0.02,SCT,OVC,0.08,WeatherDisplay:10.37,2013-07-18 08:22:00,
2013-07-18 04:27:00,73.5,72.6,30.02,NNE,32,0.0,0.0,97,0.01,SCT,OVC,0.08,WeatherDisplay:10.37,2013-07-18 08:27:00,
2013-07-18 04:32:00,73.5,72.6,30.02,NNE,32,0.0,0.0,97,0.01,SCT,OVC,0.08,WeatherDisplay:10.37,2013-07-18 08:32:00,
2013-07-18 04:37:00,73.5,72.6,30.02,NNE,32,0.0,0.0,97,0.02,RA,OVC,0.09,WeatherDisplay:10.37,2013-07-18 08:37:00,
2013-07-18 04:42:00,73.5,72.6,30.02,NNE,32,0.0,0.0,97,0.02,RA,OVC,0.09,WeatherDisplay:10.37,2013-07-18 08:42:00,
2013-07-18 04:47:00,73.5,72.6,30.03,NNE,32,0.0,0.0,97,0.02,SCT,OVC,0.09,WeatherDisplay:10.37,2013-07-18 08:47:00,
2013-07-18 04:52:00,73.5,72.6,30.03,NNE,32,0.0,0.0,97,0.01,SCT,OVC,0.09,WeatherDisplay:10.37,2013-07-18 08:52:00,
2013-07-18 04:57:00,73.5,72.6,30.03,NNE,32,0.0,0.0,97,0.01,SCT,OVC,0.09,WeatherDisplay:10.37,2013-07-18 08:57:00,
2013-07-18 05:02:00,73.7,72.8,30.03,NNE,32,0.0,0.0,97,0.01,SCT,OVC,0.09,WeatherDisplay:10.37,2013-07-18 09:02:00,
2013-07-18 05:07:00,73.7,72.8,30.03,NNE,32,0.0,0.0,97,0.02,RA,OVC,0.10,WeatherDisplay:10.37,2013-07-18 09:07:00,
2013-07-18 05:12:00,73.7,72.8,30.03,NNE,32,0.0,0.0,97,0.02,RA,OVC,0.10,WeatherDisplay:10.37,2013-07-18 09:12:00,
2013-07-18 05:17:00,73.5,72.6,30.02,NNE,32,0.0,0.0,97,0.02,SCT,OVC,0.10,WeatherDisplay:10.37,2013-07-18 09:17:00,
2013-07-18 05:22:00,73.5,72.6,30.02,NNE,32,0.0,0.0,97,0.02,SCT,OVC,0.10,WeatherDisplay:10.37,2013-07-18 09:22:00,
2013-07-18 05:27:00,73.5,72.6,30.02,NNE,32,0.0,0.0,97,0.02,SCT,OVC,0.10,WeatherDisplay:10.37,2013-07-18 09:27:00,
2013-07-18 05:32:00,73.5,72.6,30.03,NNE,32,0.0,0.0,97,0.02,SCT,OVC,0.10,WeatherDisplay:10.37,2013-07-18 09:32:00,
2013-07-18 05:37:00,73.5,72.6,30.03,NNE,32,0.0,0.0,97,0.01,SCT,OVC,0.10,WeatherDisplay:10.37,2013-07-18 09:37:00,
2013-07-18 05:42:00,73.5,72.6,30.03,NNE,32,0.0,0.0,97,0.01,SCT,OVC,0.10,WeatherDisplay:10.37,2013-07-18 09:42:00,
2013-07-18 05:47:00,73.5,72.6,30.03,NNE,32,0.0,0.0,97,0.01,SCT,OVC,0.10,WeatherDisplay:10.37,2013-07-18 09:47:00,
2013-07-18 05:52:00,73.5,72.6,30.03,NNE,32,0.0,0.0,97,0.01,SCT,OVC,0.10,WeatherDisplay:10.37,2013-07-18 09:52:00,
2013-07-18 05:57:00,73.5,72.6,30.03,NNE,32,0.0,0.0,97,0.02,RA,OVC,0.11,WeatherDisplay:10.37,2013-07-18 09:57:00,
2013-07-18 06:02:00,73.7,72.8,30.04,NNE,32,0.0,0.0,97,0.02,RA,OVC,0.11,WeatherDisplay:10.37,2013-07-18 10:02:00,
2013-07-18 06:07:00,73.7,72.8,30.04,NNE,32,0.0,0.0,97,0.01,SCT,OVC,0.11,WeatherDisplay:10.37,2013-07-18 10:07:00,
2013-07-18 06:12:00,73.7,72.8,30.04,NNE,32,0.0,0.0,97,0.01,SCT,OVC,0.11,WeatherDisplay:10.37,2013-07-18 10:12:00,
2013-07-18 06:17:00,73.7,72.8,30.04,NNE,32,0.0,0.0,97,0.01,SCT,OVC,0.11,WeatherDisplay:10.37,2013-07-18 10:17:00,
2013-07-18 06:22:00,73.7,72.8,30.04,NNE,32,0.0,0.0,97,0.01,SCT,OVC,0.11,WeatherDisplay:10.37,2013-07-18 10:22:00,
2013-07-18 06:27:00,73.7,72.8,30.04,NNE,32,0.0,0.0,97,0.01,SCT,OVC,0.11,WeatherDisplay:10.37,2013-07-18 10:27:00,
2013-07-18 06:32:00,73.7,72.8,30.05,NNE,32,0.0,0.0,97,0.02,RA,OVC,0.12,WeatherDisplay:10.37,2013-07-18 10:32:00,
2013-07-18 06:37:00,73.7,72.8,30.05,NNE,32,0.0,0.0,97,0.02,RA,OVC,0.12,WeatherDisplay:10.37,2013-07-18 10:37:00,
2013-07-18 06:42:00,73.7,72.8,30.05,NNE,32,0.0,0.0,97,0.02,SCT,OVC,0.12,WeatherDisplay:10.37,2013-07-18 10:42:00,
2013-07-18 06:47:00,73.5,72.6,30.05,NNE,32,0.0,0.0,97,0.02,SCT,OVC,0.12,WeatherDisplay:10.37,2013-07-18 10:47:00,
2013-07-18 06:52:00,73.5,72.6,30.05,NNE,32,0.0,0.0,97,0.02,SCT,OVC,0.12,WeatherDisplay:10.37,2013-07-18 10:52:00,
2013-07-18 06:57:00,73.5,72.6,30.05,NNE,32,0.0,0.0,97,0.01,SCT,OVC,0.12,WeatherDisplay:10.37,2013-07-18 10:57:00,
2013-07-18 07:02:00,73.7,72.8,30.06,NNE,32,0.0,0.0,97,0.01,SCT,OVC,0.12,WeatherDisplay:10.37,2013-07-18 11:02:00,
2013-07-18 07:07:00,73.7,72.8,30.06,NNE,32,0.0,0.0,97,0.01,SCT,OVC,0.12,WeatherDisplay:10.37,2013-07-18 11:07:00,
2013-07-18 07:12:00,73.7,72.8,30.06,NNE,32,0.0,0.0,97,0.01,SCT,OVC,0.12,WeatherDisplay:10.37,2013-07-18 11:12:00,
2013-07-18 07:17:00,73.7,72.8,30.05,NNE,32,0.0,0.0,97,0.01,SCT,OVC,0.12,WeatherDisplay:10.37,2013-07-18 11:17:00,
2013-07-18 07:22:00,73.7,72.8,30.05,NNE,32,0.0,0.0,97,0.01,SCT,OVC,0.12,WeatherDisplay:10.37,2013-07-18 11:22:00,
2013-07-18 07:27:00,73.7,72.8,30.05,NNE,32,0.0,0.0,97,0.01,SCT,OVC,0.12,WeatherDisplay:10.37,2013-07-18 11:27:00,
2013-07-18 07:32:00,73.7,72.8,30.05,NNE,32,0.0,0.0,97,0.00,SCT,OVC,0.12,WeatherDisplay:10.37,2013-07-18 11:32:00,
2013-07-18 07:37:00,73.9,73.0,30.05,NNE,32,0.0,0.0,97,0.01,RA,OVC,0.13,WeatherDisplay:10.37,2013-07-18 11:37:00,
2013-07-18 07:42:00,73.9,73.0,30.05,NNE,32,0.0,0.0,97,0.01,RA,OVC,0.13,WeatherDisplay:10.37,2013-07-18 11:42:00,
2013-07-18 07:47:00,73.9,73.0,30.05,NNE,32,0.0,0.0,97,0.01,SCT,OVC,0.13,WeatherDisplay:10.37,2013-07-18 11:47:00,
2013-07-18 07:52:00,74.0,73.1,30.05,NNE,32,0.0,0.0,97,0.01,SCT,OVC,0.13,WeatherDisplay:10.37,2013-07-18 11:52:00,
2013-07-18 07:57:00,74.2,73.3,30.05,NNE,32,0.0,0.0,97,0.01,SCT,OVC,0.13,WeatherDisplay:10.37,2013-07-18 11:57:00,
2013-07-18 08:02:00,74.4,73.5,30.06,NNE,32,0.0,0.0,97,0.01,SCT,OVC,0.13,WeatherDisplay:10.37,2013-07-18 12:02:00,
2013-07-18 08:07:00,74.7,73.8,30.06,NNE,32,0.0,0.0,97,0.01,SCT,OVC,0.13,WeatherDisplay:10.37,2013-07-18 12:07:00,
2013-07-18 08:12:00,76.0,75.1,30.06,NNE,33,0.0,0.0,97,0.01,SCT,OVC,0.13,WeatherDisplay:10.37,2013-07-18 12:12:00,
2013-07-18 08:17:00,76.5,75.6,30.07,NNE,33,0.0,0.0,97,0.01,SCT,OVC,0.13,WeatherDisplay:10.37,2013-07-18 12:17:00,
2013-07-18 08:22:00,77.2,76.3,30.07,NE,34,0.0,0.0,97,0.01,SCT,OVC,0.13,WeatherDisplay:10.37,2013-07-18 12:22:00,
2013-07-18 08:27:00,77.7,76.8,30.07,NE,36,0.0,0.0,97,0.01,SCT,OVC,0.14,WeatherDisplay:10.37,2013-07-18 12:27:00,
2013-07-18 08:33:00,77.2,76.3,30.07,ENE,67,0.0,0.0,97,0.02,RA,OVC,0.14,WeatherDisplay:10.37,2013-07-18 12:33:00,
2013-07-18 08:38:00,77.4,76.5,30.07,ENE,67,0.0,0.0,97,0.01,RA,OVC,0.14,WeatherDisplay:10.37,2013-07-18 12:38:00,
2013-07-18 08:43:00,77.6,76.7,30.07,East,80,0.0,0.0,97,0.01,SCT,OVC,0.14,WeatherDisplay:10.37,2013-07-18 12:43:00,
2013-07-18 08:48:00,77.7,76.8,30.07,East,86,0.0,0.0,97,0.01,SCT,OVC,0.14,WeatherDisplay:10.37,2013-07-18 12:48:00,
2013-07-18 08:53:00,77.9,77.0,30.07,NE,42,0.0,0.0,97,0.01,SCT,OVC,0.14,WeatherDisplay:10.37,2013-07-18 12:53:00,
2013-07-18 08:58:00,77.4,76.5,30.07,East,98,0.0,0.0,97,0.01,SCT,OVC,0.14,WeatherDisplay:10.37,2013-07-18 12:58:00,
2013-07-18 09:03:00,77.2,76.3,30.08,SE,138,0.0,0.0,97,0.01,SCT,OVC,0.14,WeatherDisplay:10.37,2013-07-18 13:03:00,
2013-07-18 09:08:00,77.4,76.5,30.08,ESE,105,0.0,0.0,97,0.02,RA,OVC,0.15,WeatherDisplay:10.37,2013-07-18 13:08:00,
2013-07-18 09:13:00,77.6,76.4,30.08,NE,38,0.0,0.0,96,0.02,RA,OVC,0.15,WeatherDisplay:10.37,2013-07-18 13:13:00,
2013-07-18 09:18:00,77.4,76.2,30.07,ENE,65,0.0,0.0,96,0.02,SCT,OVC,0.15,WeatherDisplay:10.37,2013-07-18 13:18:00,
2013-07-18 09:23:00,77.4,76.2,30.07,East,88,0.0,0.0,96,0.02,SCT,OVC,0.15,WeatherDisplay:10.37,2013-07-18 13:23:00,
2013-07-18 09:28:00,77.2,76.0,30.07,SE,136,0.0,0.0,96,0.01,SCT,OVC,0.15,WeatherDisplay:10.37,2013-07-18 13:28:00,
2013-07-18 09:33:00,76.8,75.6,30.08,SE,138,0.0,0.0,96,0.01,SCT,OVC,0.15,WeatherDisplay:10.37,2013-07-18 13:33:00,
2013-07-18 09:38:00,76.8,75.6,30.08,SE,138,0.0,0.0,96,0.01,SCT,OVC,0.15,WeatherDisplay:10.37,2013-07-18 13:38:00,
2013-07-18 09:43:00,76.5,75.0,30.08,SE,146,12.7,12.7,95,0.01,SCT,OVC,0.15,WeatherDisplay:10.37,2013-07-18 13:43:00,
2013-07-18 09:48:00,76.7,75.2,30.09,SE,140,0.0,0.0,95,0.01,SCT,OVC,0.15,WeatherDisplay:10.37,2013-07-18 13:48:00,
2013-07-18 09:53:00,77.0,75.5,30.09,East,82,0.0,0.0,95,0.01,SCT,OVC,0.15,WeatherDisplay:10.37,2013-07-18 13:53:00,
2013-07-18 09:58:00,77.6,75.7,30.09,SE,146,3.5,3.5,94,0.02,RA,OVC,0.16,WeatherDisplay:10.37,2013-07-18 13:58:00,
2013-07-18 10:03:00,77.6,75.4,30.09,SE,142,0.0,0.0,93,0.02,RA,OVC,0.16,WeatherDisplay:10.37,2013-07-18 14:03:00,
2013-07-18 10:08:00,77.9,75.7,30.09,ENE,70,1.2,0.0,93,0.01,SCT,OVC,0.16,WeatherDisplay:10.37,2013-07-18 14:08:00,
2013-07-18 10:13:00,77.9,75.4,30.09,SE,140,5.8,5.8,92,0.01,SCT,OVC,0.16,WeatherDisplay:10.37,2013-07-18 14:13:00,
2013-07-18 10:18:00,77.7,74.9,30.09,ENE,75,1.2,0.0,91,0.01,SCT,OVC,0.16,WeatherDisplay:10.37,2013-07-18 14:18:00,
2013-07-18 10:23:00,77.7,74.5,30.09,East,88,3.5,3.5,90,0.01,SCT,OVC,0.16,WeatherDisplay:10.37,2013-07-18 14:23:00,
2013-07-18 10:28:00,77.7,74.5,30.09,ENE,73,0.0,0.0,90,0.01,SCT,OVC,0.16,WeatherDisplay:10.37,2013-07-18 14:28:00,
2013-07-18 10:33:00,77.7,74.2,30.09,SE,144,8.1,8.1,89,0.01,SCT,OVC,0.16,WeatherDisplay:10.37,2013-07-18 14:33:00,
2013-07-18 10:38:00,77.6,74.1,30.09,ESE,103,11.5,11.5,89,0.01,SCT,OVC,0.16,WeatherDisplay:10.37,2013-07-18 14:38:00,
2013-07-18 10:43:00,77.6,73.8,30.09,SE,132,9.2,9.2,88,0.01,SCT,OVC,0.16,WeatherDisplay:10.37,2013-07-18 14:43:00,
2013-07-18 10:48:00,77.4,73.2,30.09,SSE,153,19.6,19.6,87,0.01,SCT,OVC,0.16,WeatherDisplay:10.37,2013-07-18 14:48:00,
2013-07-18 10:53:00,77.2,73.0,30.09,SSE,149,16.1,16.1,87,0.01,SCT,OVC,0.16,WeatherDisplay:10.37,2013-07-18 14:53:00,
2013-07-18 10:58:00,77.4,73.6,30.09,SSE,151,0.0,0.0,88,0.00,SCT,OVC,0.16,WeatherDisplay:10.37,2013-07-18 14:58:00,
2013-07-18 11:03:00,77.0,73.5,30.09,SSE,161,0.0,0.0,89,0.01,RA,OVC,0.17,WeatherDisplay:10.37,2013-07-18 15:03:00,
2013-07-18 11:08:00,76.8,73.3,30.09,SE,129,0.0,0.0,89,0.01,RA,OVC,0.17,WeatherDisplay:10.37,2013-07-18 15:08:00,
2013-07-18 11:13:00,76.8,73.3,30.09,SE,129,0.0,0.0,89,0.01,SCT,OVC,0.17,WeatherDisplay:10.37,2013-07-18 15:13:00,
2013-07-18 11:18:00,76.8,73.6,30.09,SE,129,0.0,0.0,90,0.01,SCT,OVC,0.17,WeatherDisplay:10.37,2013-07-18 15:18:00,
2013-07-18 11:23:00,76.8,73.6,30.09,SE,129,0.0,0.0,90,0.01,SCT,OVC,0.17,WeatherDisplay:10.37,2013-07-18 15:23:00,
2013-07-18 11:28:00,76.8,74.0,30.09,SE,129,0.0,0.0,91,0.01,SCT,OVC,0.17,WeatherDisplay:10.37,2013-07-18 15:28:00,
2013-07-18 11:33:00,76.8,74.0,30.09,SE,129,0.0,0.0,91,0.01,SCT,OVC,0.17,WeatherDisplay:10.37,2013-07-18 15:33:00,
2013-07-18 11:38:00,77.2,74.7,30.09,SE,129,0.0,0.0,92,0.01,SCT,OVC,0.17,WeatherDisplay:10.37,2013-07-18 15:38:00,
2013-07-18 11:43:00,77.7,75.2,30.09,SE,129,0.0,0.0,92,0.01,SCT,OVC,0.17,WeatherDisplay:10.37,2013-07-18 15:43:00,
2013-07-18 11:48:00,78.1,75.6,30.09,ESE,113,0.0,0.0,92,0.01,SCT,OVC,0.17,WeatherDisplay:10.37,2013-07-18 15:48:00,
2013-07-18 11:53:00,78.6,76.1,30.09,East,94,0.0,0.0,92,0.01,SCT,OVC,0.17,WeatherDisplay:10.37,2013-07-18 15:53:00,
2013-07-18 11:58:00,78.6,75.8,30.09,SE,134,0.0,0.0,91,0.01,SCT,OVC,0.17,WeatherDisplay:10.37,2013-07-18 15:58:00,
2013-07-18 12:03:00,79.2,76.0,30.10,SE,142,0.0,0.0,90,0.00,SCT,OVC,0.17,WeatherDisplay:10.37,2013-07-18 16:03:00,
2013-07-18 12:08:00,79.2,75.7,30.10,SE,131,0.0,0.0,89,0.00,SCT,OVC,0.17,WeatherDisplay:10.37,2013-07-18 16:08:00,
2013-07-18 12:13:00,79.6,75.7,30.10,ESE,119,0.0,0.0,88,0.00,SCT,OVC,0.17,WeatherDisplay:10.37,2013-07-18 16:13:00,
2013-07-18 12:18:00,79.6,75.0,30.09,NE,36,0.0,0.0,86,0.00,SCT,OVC,0.17,WeatherDisplay:10.37,2013-07-18 16:18:00,
2013-07-18 12:23:00,79.9,75.3,30.09,SSE,148,0.0,0.0,86,0.01,RA,OVC,0.18,WeatherDisplay:10.37,2013-07-18 16:23:00,
2013-07-18 12:28:00,80.1,75.5,30.09,SE,134,0.0,0.0,86,0.01,RA,OVC,0.18,WeatherDisplay:10.37,2013-07-18 16:28:00,
2013-07-18 12:33:00,80.3,75.7,30.09,SE,138,0.0,0.0,86,0.01,SCT,OVC,0.18,WeatherDisplay:10.37,2013-07-18 16:33:00,
2013-07-18 12:38:00,80.3,75.4,30.09,ESE,105,0.0,0.0,85,0.01,SCT,OVC,0.18,WeatherDisplay:10.37,2013-07-18 16:38:00,
2013-07-18 12:43:00,80.5,75.6,30.09,ESE,123,0.0,0.0,85,0.01,SCT,OVC,0.18,WeatherDisplay:10.37,2013-07-18 16:43:00,
2013-07-18 12:48:00,80.9,76.0,30.09,ESE,102,0.0,0.0,85,0.01,SCT,OVC,0.18,WeatherDisplay:10.37,2013-07-18 16:48:00,
2013-07-18 12:53:00,81.1,76.2,30.09,ESE,115,0.0,0.0,85,0.01,SCT,OVC,0.18,WeatherDisplay:10.37,2013-07-18 16:53:00,
2013-07-18 12:59:00,81.2,76.3,30.09,East,82,0.0,0.0,85,0.01,SCT,OVC,0.18,WeatherDisplay:10.37,2013-07-18 16:59:00,
2013-07-18 13:04:00,81.6,76.6,30.08,ESE,109,0.0,0.0,85,0.01,SCT,OVC,0.18,WeatherDisplay:10.37,2013-07-18 17:04:00,
2013-07-18 13:09:00,81.8,76.5,30.08,ENE,59,0.0,0.0,84,0.01,SCT,OVC,0.18,WeatherDisplay:10.37,2013-07-18 17:09:00,
2013-07-18 13:14:00,81.8,76.5,30.08,East,83,0.0,0.0,84,0.01,SCT,OVC,0.18,WeatherDisplay:10.37,2013-07-18 17:14:00,
2013-07-18 13:19:00,82.2,76.5,30.08,ESE,102,0.0,0.0,83,0.01,SCT,OVC,0.18,WeatherDisplay:10.37,2013-07-18 17:19:00,
2013-07-18 13:24:00,82.6,76.5,30.08,ESE,107,0.0,0.0,82,0.00,SCT,OVC,0.18,WeatherDisplay:10.37,2013-07-18 17:24:00,
2013-07-18 13:29:00,82.8,76.4,30.08,SE,142,0.0,0.0,81,0.00,SCT,OVC,0.18,WeatherDisplay:10.37,2013-07-18 17:29:00,
2013-07-18 13:34:00,83.2,76.4,30.07,SE,135,3.5,3.5,80,0.00,SCT,OVC,0.18,WeatherDisplay:10.37,2013-07-18 17:34:00,
2013-07-18 13:39:00,83.4,76.2,30.07,SSE,149,20.7,20.7,79,0.00,SCT,OVC,0.18,WeatherDisplay:10.37,2013-07-18 17:39:00,
2013-07-18 13:44:00,81.6,73.7,30.07,SE,146,16.1,16.1,77,0.00,SCT,OVC,0.18,WeatherDisplay:10.37,2013-07-18 17:44:00,
2013-07-18 13:49:00,80.3,74.7,30.07,SE,145,0.0,0.0,83,0.01,RA,OVC,0.19,WeatherDisplay:10.37,2013-07-18 17:49:00,
2013-07-18 13:54:00,80.3,75.7,30.07,ESE,115,0.0,0.0,86,0.01,RA,OVC,0.19,WeatherDisplay:10.37,2013-07-18 17:54:00,
2013-07-18 13:59:00,80.7,76.8,30.07,SE,140,0.0,0.0,88,0.01,SCT,OVC,0.19,WeatherDisplay:10.37,2013-07-18 17:59:00,
2013-07-18 14:04:00,80.3,76.1,30.07,East,98,0.0,0.0,87,0.01,SCT,OVC,0.19,WeatherDisplay:10.37,2013-07-18 18:04:00,
2013-07-18 14:09:00,80.7,76.8,30.07,SSE,150,2.3,2.3,88,0.01,SCT,OVC,0.19,WeatherDisplay:10.37,2013-07-18 18:09:00,
2013-07-18 14:14:00,80.7,76.5,30.07,SSE,148,11.5,11.5,87,0.01,SCT,OVC,0.19,WeatherDisplay:10.37,2013-07-18 18:14:00,
2013-07-18 14:19:00,80.5,75.9,30.07,SE,143,14.0,14.0,86,0.01,SCT,OVC,0.19,WeatherDisplay:10.37,2013-07-18 18:19:00,
2013-07-18 14:24:00,80.7,75.8,30.07,SE,130,3.5,0.0,85,0.01,SCT,OVC,0.19,WeatherDisplay:10.37,2013-07-18 18:24:00,
2013-07-18 14:29:00,80.7,75.8,30.07,SSE,153,11.5,11.5,85,0.01,SCT,OVC,0.19,WeatherDisplay:10.37,2013-07-18 18:29:00,
2013-07-18 14:34:00,80.9,75.6,30.07,SE,132,0.0,0.0,84,0.01,SCT,OVC,0.19,WeatherDisplay:10.37,2013-07-18 18:34:00,
2013-07-18 14:39:00,80.9,75.6,30.07,SE,130,0.0,0.0,84,0.01,SCT,OVC,0.19,WeatherDisplay:10.37,2013-07-18 18:39:00,
2013-07-18 14:44:00,80.9,75.2,30.06,ESE,117,0.0,0.0,83,0.01,SCT,OVC,0.19,WeatherDisplay:10.37,2013-07-18 18:44:00,
2013-07-18 14:49:00,80.9,74.9,30.06,NE,45,0.0,0.0,82,0.00,SCT,OVC,0.19,WeatherDisplay:10.37,2013-07-18 18:49:00,
2013-07-18 14:54:00,81.1,74.7,30.06,ENE,63,0.0,0.0,81,0.00,SCT,OVC,0.19,WeatherDisplay:10.37,2013-07-18 18:54:00,
2013-07-18 14:59:00,81.2,75.2,30.06,SE,136,0.0,0.0,82,0.00,SCT,OVC,0.19,WeatherDisplay:10.37,2013-07-18 18:59:00,
2013-07-18 15:04:00,81.4,75.0,30.06,East,93,3.5,0.0,81,0.00,SCT,OVC,0.19,WeatherDisplay:10.37,2013-07-18 19:04:00,
2013-07-18 15:09:00,81.6,75.2,30.06,East,86,0.0,0.0,81,0.00,SCT,OVC,0.19,WeatherDisplay:10.37,2013-07-18 19:09:00,
2013-07-18 15:14:00,81.8,75.0,30.05,SE,138,0.0,0.0,80,0.00,SCT,OVC,0.19,WeatherDisplay:10.37,2013-07-18 19:14:00,
2013-07-18 15:19:00,82.0,74.8,30.05,SE,136,1.2,1.2,79,0.00,SCT,OVC,0.19,WeatherDisplay:10.37,2013-07-18 19:19:00,
2013-07-18 15:24:00,82.2,74.7,30.05,SE,138,3.5,3.5,78,0.00,SCT,OVC,0.19,WeatherDisplay:10.37,2013-07-18 19:24:00,
2013-07-18 15:29:00,82.2,74.7,30.06,SE,136,12.7,12.7,78,0.01,RA,OVC,0.20,WeatherDisplay:10.37,2013-07-18 19:29:00,
2013-07-18 15:34:00,82.2,74.7,30.06,SE,136,9.2,9.2,78,0.01,RA,OVC,0.20,WeatherDisplay:10.37,2013-07-18 19:34:00,
2013-07-18 15:39:00,82.0,74.8,30.06,SE,124,11.5,11.5,79,0.01,SCT,OVC,0.20,WeatherDisplay:10.37,2013-07-18 19:39:00,
2013-07-18 15:44:00,82.2,75.0,30.06,NE,49,0.0,0.0,79,0.01,SCT,OVC,0.20,WeatherDisplay:10.37,2013-07-18 19:44:00,
2013-07-18 15:49:00,82.4,75.6,30.06,SE,144,0.0,0.0,80,0.01,SCT,OVC,0.20,WeatherDisplay:10.37,2013-07-18 19:49:00,
2013-07-18 15:54:00,82.6,75.4,30.06,SSE,155,17.3,17.3,79,0.01,SCT,OVC,0.20,WeatherDisplay:10.37,2013-07-18 19:54:00,
2013-07-18 15:59:00,82.6,75.4,30.06,SE,138,10.0,10.0,79,0.01,SCT,OVC,0.20,WeatherDisplay:10.37,2013-07-18 19:59:00,
2013-07-18 16:04:00,82.6,75.4,30.06,SE,127,3.5,3.5,79,0.01,SCT,OVC,0.20,WeatherDisplay:10.37,2013-07-18 20:04:00,
2013-07-18 16:09:00,82.8,75.6,30.06,SE,132,6.0,6.0,79,0.01,SCT,OVC,0.20,WeatherDisplay:10.37,2013-07-18 20:09:00,
2013-07-18 16:14:00,82.8,75.6,30.05,ESE,122,0.0,0.0,79,0.01,SCT,OVC,0.20,WeatherDisplay:10.37,2013-07-18 20:14:00,
2013-07-18 16:19:00,83.0,75.8,30.05,SE,134,3.5,0.0,79,0.01,SCT,OVC,0.20,WeatherDisplay:10.37,2013-07-18 20:19:00,
2013-07-18 16:24:00,83.0,75.4,30.05,SE,138,0.0,0.0,78,0.01,SCT,OVC,0.20,WeatherDisplay:10.37,2013-07-18 20:24:00,
2013-07-18 16:29:00,83.2,75.6,30.04,SE,136,3.5,0.0,78,0.00,SCT,OVC,0.20,WeatherDisplay:10.37,2013-07-18 20:29:00,
2013-07-18 16:34:00,83.2,75.2,30.04,East,90,5.8,5.8,77,0.00,SCT,OVC,0.20,WeatherDisplay:10.37,2013-07-18 20:34:00,
2013-07-18 16:39:00,82.8,74.5,30.04,SSE,157,11.5,11.5,76,0.00,SCT,OVC,0.20,WeatherDisplay:10.37,2013-07-18 20:39:00,
2013-07-18 16:44:00,82.8,74.8,30.04,ENE,63,0.0,1.2,77,0.00,SCT,OVC,0.20,WeatherDisplay:10.37,2013-07-18 20:44:00,
2013-07-18 16:49:00,82.8,75.2,30.04,SW,217,11.5,11.5,78,0.00,SCT,OVC,0.20,WeatherDisplay:10.37,2013-07-18 20:49:00,
2013-07-18 16:54:00,79.8,71.2,30.04,WNW,284,34.5,34.5,75,0.00,SCT,OVC,0.20,WeatherDisplay:10.37,2013-07-18 20:54:00,
2013-07-18 16:59:00,76.3,70.4,30.07,WSW,255,33.4,33.4,82,0.00,SCT,OVC,0.20,WeatherDisplay:10.37,2013-07-18 20:59:00,
2013-07-18 17:04:00,74.7,70.2,30.07,NW,313,18.4,18.4,86,0.00,SCT,OVC,0.20,WeatherDisplay:10.37,2013-07-18 21:04:00,
2013-07-18 17:09:00,73.7,69.9,30.07,NW,313,16.1,16.1,88,0.00,SCT,OVC,0.20,WeatherDisplay:10.37,2013-07-18 21:09:00,
2013-07-18 17:14:00,73.0,69.9,30.07,West,264,5.8,5.8,90,0.00,SCT,OVC,0.20,WeatherDisplay:10.37,2013-07-18 21:14:00,
2013-07-18 17:19:00,72.7,69.9,30.07,West,270,25.3,25.3,91,0.00,SCT,OVC,0.20,WeatherDisplay:10.37,2013-07-18 21:19:00,
2013-07-18 17:24:00,72.3,69.8,30.07,West,269,16.1,16.1,92,0.00,SCT,OVC,0.20,WeatherDisplay:10.37,2013-07-18 21:24:00,
2013-07-18 17:29:00,72.0,69.5,30.07,NW,325,3.5,0.0,92,0.00,SCT,OVC,0.20,WeatherDisplay:10.37,2013-07-18 21:29:00,
2013-07-18 17:34:00,71.8,69.7,30.07,NW,323,0.0,0.0,93,0.00,SCT,OVC,0.21,WeatherDisplay:10.37,2013-07-18 21:34:00,
2013-07-18 17:39:00,71.8,69.7,30.07,NW,323,0.0,0.0,93,0.01,RA,OVC,0.21,WeatherDisplay:10.37,2013-07-18 21:39:00,
2013-07-18 17:44:00,71.8,69.7,30.06,NW,322,0.0,0.0,93,0.01,RA,OVC,0.21,WeatherDisplay:10.37,2013-07-18 21:44:00,
2013-07-18 17:49:00,71.8,69.7,30.06,NW,322,0.0,0.0,93,0.01,SCT,OVC,0.21,WeatherDisplay:10.37,2013-07-18 21:49:00,
2013-07-18 17:54:00,71.8,70.0,30.06,NW,322,0.0,0.0,94,0.01,SCT,OVC,0.21,WeatherDisplay:10.37,2013-07-18 21:54:00,
2013-07-18 17:59:00,71.8,70.0,30.07,NW,322,0.0,0.0,94,0.01,SCT,OVC,0.21,WeatherDisplay:10.37,2013-07-18 21:59:00,
2013-07-18 18:04:00,71.8,70.0,30.07,NW,322,0.0,0.0,94,0.01,SCT,OVC,0.21,WeatherDisplay:10.37,2013-07-18 22:04:00,
2013-07-18 18:09:00,71.8,70.0,30.07,NW,322,0.0,0.0,94,0.01,SCT,OVC,0.21,WeatherDisplay:10.37,2013-07-18 22:09:00,
2013-07-18 18:15:00,71.8,70.0,30.04,NW,322,0.0,0.0,94,0.01,SCT,OVC,0.21,WeatherDisplay:10.37,2013-07-18 22:15:00,
2013-07-18 18:20:00,71.8,70.0,30.04,NW,322,0.0,0.0,94,0.01,SCT,OVC,0.21,WeatherDisplay:10.37,2013-07-18 22:20:00,
2013-07-18 18:25:00,71.8,70.3,30.04,NW,322,0.0,0.0,95,0.01,SCT,OVC,0.21,WeatherDisplay:10.37,2013-07-18 22:25:00,
2013-07-18 18:30:00,71.8,70.3,30.05,NW,322,0.0,0.0,95,0.01,SCT,OVC,0.21,WeatherDisplay:10.37,2013-07-18 22:30:00,
2013-07-18 18:35:00,71.8,70.3,30.05,NW,322,0.0,0.0,95,0.00,SCT,OVC,0.21,WeatherDisplay:10.37,2013-07-18 22:35:00,
2013-07-18 18:40:00,72.1,70.6,30.05,NW,322,0.0,0.0,95,0.00,SCT,OVC,0.21,WeatherDisplay:10.37,2013-07-18 22:40:00,
2013-07-18 18:45:00,72.1,70.6,30.06,NW,322,0.0,0.0,95,0.00,SCT,OVC,0.21,WeatherDisplay:10.37,2013-07-18 22:45:00,
2013-07-18 18:50:00,72.1,70.6,30.06,NW,322,0.0,0.0,95,0.00,SCT,OVC,0.21,WeatherDisplay:10.37,2013-07-18 22:50:00,
2013-07-18 18:55:00,72.1,70.6,30.06,NW,322,0.0,0.0,95,0.00,SCT,OVC,0.21,WeatherDisplay:10.37,2013-07-18 22:55:00,
2013-07-18 19:00:00,72.3,70.8,30.07,NW,322,0.0,0.0,95,0.00,SCT,OVC,0.21,WeatherDisplay:10.37,2013-07-18 23:00:00,
2013-07-18 19:05:00,72.1,70.6,30.07,NW,322,0.0,0.0,95,0.00,SCT,OVC,0.21,WeatherDisplay:10.37,2013-07-18 23:05:00,
2013-07-18 19:10:00,72.1,70.6,30.07,NW,322,0.0,0.0,95,0.00,SCT,OVC,0.21,WeatherDisplay:10.37,2013-07-18 23:10:00,
2013-07-18 19:15:00,72.1,70.6,30.07,NW,322,0.0,0.0,95,0.00,SCT,OVC,0.21,WeatherDisplay:10.37,2013-07-18 23:15:00,
2013-07-18 19:20:00,72.1,70.6,30.07,NW,322,0.0,0.0,95,0.00,SCT,OVC,0.21,WeatherDisplay:10.37,2013-07-18 23:20:00,
2013-07-18 19:25:00,72.1,70.6,30.07,NW,323,0.0,0.0,95,0.00,SCT,OVC,0.21,WeatherDisplay:10.37,2013-07-18 23:25:00,
2013-07-18 19:30:00,72.3,70.8,30.07,NW,323,0.0,0.0,95,0.00,SCT,OVC,0.21,WeatherDisplay:10.37,2013-07-18 23:30:00,
2013-07-18 19:35:00,72.3,71.1,30.07,NW,323,0.0,0.0,96,0.00,SCT,OVC,0.21,WeatherDisplay:10.37,2013-07-18 23:35:00,
2013-07-18 19:40:00,72.3,71.1,30.07,NNE,16,0.0,0.0,96,0.00,SCT,OVC,0.21,WeatherDisplay:10.37,2013-07-18 23:40:00,
2013-07-18 19:45:00,72.3,71.1,30.07,NNE,19,0.0,0.0,96,0.00,SCT,OVC,0.21,WeatherDisplay:10.37,2013-07-18 23:45:00,
2013-07-18 19:50:00,72.1,70.9,30.07,NNE,20,0.0,0.0,96,0.00,SCT,OVC,0.21,WeatherDisplay:10.37,2013-07-18 23:50:00,
2013-07-18 19:55:00,72.3,71.1,30.07,NE,40,0.0,0.0,96,0.00,SCT,OVC,0.21,WeatherDisplay:10.37,2013-07-18 23:55:00,
2013-07-18 20:00:00,72.3,71.1,30.07,ENE,58,0.0,0.0,96,0.01,RA,OVC,0.22,WeatherDisplay:10.37,2013-07-19 00:00:00,
2013-07-18 20:05:00,72.3,71.1,30.07,ENE,61,8.1,8.1,96,0.01,RA,OVC,0.22,WeatherDisplay:10.37,2013-07-19 00:05:00,
2013-07-18 20:10:00,72.3,71.1,30.07,ENE,57,12.7,12.7,96,0.01,SCT,OVC,0.22,WeatherDisplay:10.37,2013-07-19 00:10:00,
2013-07-18 20:15:00,72.3,71.1,30.08,East,84,12.7,12.7,96,0.01,SCT,OVC,0.22,WeatherDisplay:10.37,2013-07-19 00:15:00,
2013-07-18 20:20:00,72.1,70.9,30.08,NE,37,11.5,11.5,96,0.01,SCT,OVC,0.22,WeatherDisplay:10.37,2013-07-19 00:20:00,
2013-07-18 20:25:00,72.1,70.9,30.08,NE,51,9.2,9.2,96,0.01,SCT,OVC,0.22,WeatherDisplay:10.37,2013-07-19 00:25:00,
2013-07-18 20:30:00,72.1,70.9,30.08,ENE,70,6.9,6.9,96,0.01,SCT,OVC,0.22,WeatherDisplay:10.37,2013-07-19 00:30:00,
2013-07-18 20:35:00,72.1,70.9,30.08,ENE,59,10.0,10.0,96,0.01,SCT,OVC,0.22,WeatherDisplay:10.37,2013-07-19 00:35:00,
2013-07-18 20:40:00,72.0,70.8,30.08,NE,52,9.2,9.2,96,0.01,SCT,OVC,0.22,WeatherDisplay:10.37,2013-07-19 00:40:00,
2013-07-18 20:45:00,72.0,70.8,30.08,NE,55,5.0,5.0,96,0.01,SCT,OVC,0.22,WeatherDisplay:10.37,2013-07-19 00:45:00,
2013-07-18 20:50:00,72.0,70.8,30.08,ENE,71,4.6,4.6,96,0.01,SCT,OVC,0.22,WeatherDisplay:10.37,2013-07-19 00:50:00,
2013-07-18 20:55:00,72.0,70.8,30.08,NE,54,0.0,0.0,96,0.01,SCT,OVC,0.22,WeatherDisplay:10.37,2013-07-19 00:55:00,
2013-07-18 21:00:00,72.1,70.9,30.07,ENE,57,0.0,0.0,96,0.00,SCT,OVC,0.22,WeatherDisplay:10.37,2013-07-19 01:00:00,
2013-07-18 21:05:00,72.3,71.1,30.07,ENE,57,0.0,0.0,96,0.00,SCT,OVC,0.22,WeatherDisplay:10.37,2013-07-19 01:05:00,
2013-07-18 21:10:00,72.3,71.1,30.07,ENE,57,0.0,0.0,96,0.00,SCT,OVC,0.22,WeatherDisplay:10.37,2013-07-19 01:10:00,
2013-07-18 21:15:00,72.5,71.3,30.06,ENE,57,0.0,0.0,96,0.00,SCT,OVC,0.22,WeatherDisplay:10.37,2013-07-19 01:15:00,
2013-07-18 21:20:00,72.7,71.5,30.06,ENE,57,0.0,0.0,96,0.00,SCT,OVC,0.22,WeatherDisplay:10.37,2013-07-19 01:20:00,
2013-07-18 21:25:00,72.7,71.5,30.06,ENE,57,0.0,0.0,96,0.00,SCT,OVC,0.22,WeatherDisplay:10.37,2013-07-19 01:25:00,
2013-07-18 21:30:00,72.8,71.6,30.05,ENE,57,0.0,0.0,96,0.00,SCT,OVC,0.22,WeatherDisplay:10.37,2013-07-19 01:30:00,
2013-07-18 21:35:00,72.8,71.6,30.05,ENE,57,0.0,0.0,96,0.00,SCT,OVC,0.22,WeatherDisplay:10.37,2013-07-19 01:35:00,
2013-07-18 21:40:00,72.8,71.6,30.05,ENE,57,0.0,0.0,96,0.00,SCT,OVC,0.22,WeatherDisplay:10.37,2013-07-19 01:40:00,
2013-07-18 21:45:00,73.0,71.8,30.05,ENE,57,0.0,0.0,96,0.00,SCT,OVC,0.22,WeatherDisplay:10.37,2013-07-19 01:45:00,
2013-07-18 21:50:00,72.8,71.6,30.05,ENE,57,0.0,0.0,96,0.00,SCT,OVC,0.22,WeatherDisplay:10.37,2013-07-19 01:50:00,
2013-07-18 21:55:00,73.0,71.8,30.05,ENE,57,0.0,0.0,96,0.00,SCT,OVC,0.22,WeatherDisplay:10.37,2013-07-19 01:55:00,
2013-07-18 22:00:00,73.3,72.1,30.05,ENE,57,0.0,0.0,96,0.00,SCT,OVC,0.22,WeatherDisplay:10.37,2013-07-19 02:00:00,
2013-07-18 22:05:00,73.3,72.1,30.05,ENE,57,0.0,0.0,96,0.00,SCT,OVC,0.22,WeatherDisplay:10.37,2013-07-19 02:05:00,
2013-07-18 22:10:00,73.5,72.3,30.05,ENE,57,0.0,0.0,96,0.00,SCT,OVC,0.22,WeatherDisplay:10.37,2013-07-19 02:10:00,
2013-07-18 22:15:00,73.5,72.3,30.04,ENE,57,0.0,0.0,96,0.00,SCT,OVC,0.22,WeatherDisplay:10.37,2013-07-19 02:15:00,
2013-07-18 22:20:00,73.3,72.1,30.04,ENE,57,0.0,0.0,96,0.00,SCT,OVC,0.22,WeatherDisplay:10.37,2013-07-19 02:20:00,
2013-07-18 22:25:00,73.3,72.1,30.04,ENE,57,0.0,0.0,96,0.00,SCT,OVC,0.22,WeatherDisplay:10.37,2013-07-19 02:25:00,
2013-07-18 22:30:00,73.3,72.1,30.04,ENE,57,0.0,0.0,96,0.00,SCT,OVC,0.22,WeatherDisplay:10.37,2013-07-19 02:30:00,
2013-07-18 22:35:00,73.2,72.0,30.04,ENE,57,0.0,0.0,96,0.00,SCT,OVC,0.22,WeatherDisplay:10.37,2013-07-19 02:35:00,
2013-07-18 22:40:00,73.3,72.1,30.04,ENE,57,0.0,0.0,96,0.00,SCT,OVC,0.22,WeatherDisplay:10.37,2013-07-19 02:40:00,
2013-07-18 22:45:00,73.5,72.3,30.04,ENE,57,0.0,0.0,96,0.00,SCT,OVC,0.22,WeatherDisplay:10.37,2013-07-19 02:45:00,
2013-07-18 22:50:00,73.3,72.1,30.04,ENE,57,0.0,0.0,96,0.00,SCT,OVC,0.22,WeatherDisplay:10.37,2013-07-19 02:50:00,
2013-07-18 22:55:00,73.2,72.0,30.04,ENE,57,0.0,0.0,96,0.00,SCT,OVC,0.22,WeatherDisplay:10.37,2013-07-19 02:55:00,
2013-07-18 23:00:00,73.2,72.0,30.04,ENE,57,0.0,0.0,96,0.00,SCT,OVC,0.22,WeatherDisplay:10.37,2013-07-19 03:00:00,
2013-07-18 23:06:00,73.2,72.0,30.04,ENE,57,0.0,0.0,96,0.00,SCT,OVC,0.22,WeatherDisplay:10.37,2013-07-19 03:06:00,
2013-07-18 23:11:00,73.2,72.0,30.04,ENE,57,0.0,0.0,96,0.01,RA,OVC,0.23,WeatherDisplay:10.37,2013-07-19 03:11:00,
2013-07-18 23:16:00,73.2,72.0,30.05,ENE,57,0.0,0.0,96,0.01,RA,OVC,0.23,WeatherDisplay:10.37,2013-07-19 03:16:00,
2013-07-18 23:21:00,73.2,72.0,30.05,ENE,57,0.0,0.0,96,0.01,SCT,OVC,0.23,WeatherDisplay:10.37,2013-07-19 03:21:00,
2013-07-18 23:26:00,73.3,72.4,30.05,ENE,57,0.0,0.0,97,0.01,SCT,OVC,0.23,WeatherDisplay:10.37,2013-07-19 03:26:00,
2013-07-18 23:31:00,73.3,72.1,30.06,ENE,57,0.0,0.0,96,0.01,SCT,OVC,0.23,WeatherDisplay:10.37,2013-07-19 03:31:00,
2013-07-18 23:36:00,73.3,72.1,30.06,ENE,57,0.0,0.0,96,0.01,SCT,OVC,0.23,WeatherDisplay:10.37,2013-07-19 03:36:00,
2013-07-18 23:41:00,73.2,72.0,30.06,ENE,57,0.0,0.0,96,0.01,SCT,OVC,0.23,WeatherDisplay:10.37,2013-07-19 03:41:00,
2013-07-18 23:46:00,73.2,72.0,30.06,ENE,57,0.0,0.0,96,0.01,SCT,OVC,0.23,WeatherDisplay:10.37,2013-07-19 03:46:00,
2013-07-18 23:51:00,73.2,72.0,30.06,ENE,57,0.0,0.0,96,0.01,SCT,OVC,0.23,WeatherDisplay:10.37,2013-07-19 03:51:00,
2013-07-18 23:56:00,73.3,72.4,30.06,ENE,57,0.0,0.0,97,0.01,SCT,OVC,0.23,WeatherDisplay:10.37,2013-07-19 03:56:00,